{"data":{"norad_id":56890,"epoch":"2026-05-25T00:17:28.161600Z","epoch_age_seconds":64167,"freshness":"FRESH","line1":"1 56890U 23083Q   26145.01213150  .00000340  00000+0  21879-4 0  9992","line2":"2 56890  43.0032  17.5125 0001167 284.1861  75.8861 15.27586016163262","mean_motion":15.27586016,"eccentricity":0.0001167,"inclination_deg":43.0032,"raan_deg":17.5125,"arg_perigee_deg":284.1861,"mean_anomaly_deg":75.8861,"bstar":2.1879e-5,"rev_number":16326,"period_min":94.266377468593,"perigee_km":482.23038371536,"apogee_km":483.8317803457,"semimajor_km":6861.1680820305,"source":"CELESTRAK","updated_at":"2026-05-25T13:38:18.169836Z"}}